AAL2721 KPHX-KSAN

Flight info

Callsign AAL2721
Flight time 0h 56m
Altitude 34000
Route FYRBD1 MOHAK J2 HOGGZ LUCKI1
Aircraft A21N/M-SDE2E3FGHIJ1RWXY/LB1

Departure

Time 2026-04-26 02:51
Airport Phoenix Sky Harbor International Airport (KPHX)

Arrival

Time 2026-04-26 03:47
Airport San Diego International Airport (KSAN)
Time Latitude Longitude Altitude Speed Heading
2026-04-26 02:38 33.43684 -111.99867 1130 ft 0 kts 270°
2026-04-26 02:42 33.43684 -111.99837 1132 ft 4 kts 284°
2026-04-26 02:42 33.43683 -111.99827 1133 ft 4 kts 342°
2026-04-26 02:43 33.43692 -111.99826 1135 ft 0 kts
2026-04-26 02:45 33.43699 -111.99826 1135 ft 2 kts
2026-04-26 02:46 33.43723 -111.99826 1132 ft 5 kts
2026-04-26 02:46 33.43765 -111.99826 1134 ft 7 kts
2026-04-26 02:46 33.43826 -111.99826 1132 ft 10 kts 360°
2026-04-26 02:46 33.43895 -111.99795 1131 ft 13 kts 65°
2026-04-26 02:47 33.43904 -111.99686 1131 ft 15 kts 90°
2026-04-26 02:47 33.43903 -111.99553 1131 ft 17 kts 90°
2026-04-26 02:47 33.43903 -111.99405 1131 ft 19 kts 90°
2026-04-26 02:47 33.43901 -111.99273 1131 ft 10 kts 102°
2026-04-26 02:48 33.43839 -111.99228 1133 ft 12 kts 176°
2026-04-26 02:48 33.43748 -111.99226 1132 ft 14 kts 180°
2026-04-26 02:48 33.43642 -111.99227 1132 ft 16 kts 180°
2026-04-26 02:48 33.43524 -111.99227 1132 ft 18 kts 180°
2026-04-26 02:49 33.43425 -111.99240 1133 ft 14 kts 193°
2026-04-26 02:49 33.43320 -111.99246 1133 ft 11 kts 180°
2026-04-26 02:49 33.43235 -111.99251 1136 ft 14 kts 196°
2026-04-26 02:49 33.43151 -111.99327 1141 ft 17 kts 224°
2026-04-26 02:50 33.43105 -111.99461 1137 ft 19 kts 271°
2026-04-26 02:50 33.43106 -111.99730 1138 ft 64 kts 270°
2026-04-26 02:50 33.43105 -112.00537 1137 ft 128 kts 270°
2026-04-26 02:50 33.43106 -112.01767 1166 ft 166 kts 271°
2026-04-26 02:51 33.43117 -112.03193 1645 ft 171 kts 275°
2026-04-26 02:51 33.43211 -112.04597 2344 ft 169 kts 273°
2026-04-26 02:51 33.43193 -112.06051 2822 ft 181 kts 262°
2026-04-26 02:51 33.42779 -112.07545 3304 ft 199 kts 249°
2026-04-26 02:52 33.42265 -112.09173 3911 ft 218 kts 249°
2026-04-26 02:52 33.41728 -112.10911 4403 ft 244 kts 249°
2026-04-26 02:52 33.41122 -112.12889 5058 ft 260 kts 249°
2026-04-26 02:52 33.40472 -112.14913 6018 ft 261 kts 242°
2026-04-26 02:53 33.39431 -112.16661 7003 ft 258 kts 221°
2026-04-26 02:53 33.37895 -112.17767 7921 ft 262 kts 200°
2026-04-26 02:53 33.36069 -112.18034 8835 ft 272 kts 178°
2026-04-26 02:53 33.34209 -112.17515 9743 ft 280 kts 167°
2026-04-26 02:54 33.32312 -112.16788 10400 ft 295 kts 167°
2026-04-26 02:54 33.30273 -112.16018 10781 ft 318 kts 167°
2026-04-26 02:54 33.28144 -112.15245 11407 ft 328 kts 170°
2026-04-26 02:54 33.25890 -112.14973 12220 ft 324 kts 188°
2026-04-26 02:55 33.23712 -112.15573 13098 ft 321 kts 205°
2026-04-26 02:55 33.21816 -112.16942 13931 ft 319 kts 222°
2026-04-26 02:55 33.20365 -112.18933 14702 ft 320 kts 237°
2026-04-26 02:55 33.19483 -112.21380 15400 ft 323 kts 254°
2026-04-26 02:56 33.19263 -112.24073 16157 ft 331 kts 269°
2026-04-26 02:56 33.19342 -112.26824 16937 ft 332 kts 264°
2026-04-26 02:56 33.19022 -112.29542 17701 ft 331 kts 254°
2026-04-26 02:56 33.18227 -112.32129 18405 ft 333 kts 243°
2026-04-26 02:57 33.17004 -112.34479 19057 ft 336 kts 234°
2026-04-26 02:57 33.15572 -112.36695 19718 ft 337 kts 233°
2026-04-26 02:57 33.14122 -112.38898 20398 ft 338 kts 233°
2026-04-26 02:57 33.12672 -112.41114 21068 ft 340 kts 234°
2026-04-26 02:58 33.11218 -112.43354 21734 ft 342 kts 234°
2026-04-26 02:58 33.09759 -112.45603 22399 ft 343 kts 234°
2026-04-26 02:58 33.08288 -112.47862 23037 ft 346 kts 234°
2026-04-26 02:58 33.06808 -112.50140 23614 ft 348 kts 234°
2026-04-26 02:59 33.05343 -112.52399 24159 ft 349 kts 234°
2026-04-26 02:59 33.03853 -112.54700 24732 ft 351 kts 234°
2026-04-26 02:59 33.02363 -112.57016 25271 ft 352 kts 234°
2026-04-26 02:59 33.00867 -112.59339 25795 ft 354 kts 234°
2026-04-26 03:00 32.99360 -112.61671 26319 ft 355 kts 234°
2026-04-26 03:00 32.97847 -112.64006 26825 ft 357 kts 234°
2026-04-26 03:00 32.96464 -112.66466 27319 ft 357 kts 242°
2026-04-26 03:00 32.95488 -112.69189 27789 ft 359 kts 251°
2026-04-26 03:01 32.94953 -112.72109 28255 ft 363 kts 257°
2026-04-26 03:01 32.94563 -112.75088 28700 ft 365 kts 258°
2026-04-26 03:01 32.94182 -112.78086 29130 ft 367 kts 258°
2026-04-26 03:01 32.93790 -112.81092 29548 ft 369 kts 257°
2026-04-26 03:02 32.93396 -112.84057 29938 ft 371 kts 257°
2026-04-26 03:02 32.92984 -112.87080 30398 ft 369 kts 257°
2026-04-26 03:02 32.92575 -112.90085 30924 ft 366 kts 257°
2026-04-26 03:02 32.92174 -112.93061 31458 ft 362 kts 257°
2026-04-26 03:03 32.91770 -112.96003 31973 ft 359 kts 257°
2026-04-26 03:03 32.91378 -112.98926 32466 ft 356 kts 257°
2026-04-26 03:03 32.90985 -113.01822 32937 ft 353 kts 257°
2026-04-26 03:03 32.90591 -113.04698 33405 ft 351 kts 256°
2026-04-26 03:04 32.90201 -113.07555 33704 ft 349 kts 256°
2026-04-26 03:04 32.89814 -113.10390 33753 ft 346 kts 256°
2026-04-26 03:04 32.89038 -113.16041 33749 ft 346 kts 256°
2026-04-26 03:05 32.88250 -113.21684 33741 ft 346 kts 256°
2026-04-26 03:05 32.87444 -113.27387 33747 ft 357 kts 256°
2026-04-26 03:06 32.86618 -113.33296 33749 ft 369 kts 256°
2026-04-26 03:06 32.85788 -113.39326 33744 ft 370 kts 256°
2026-04-26 03:07 32.84959 -113.45355 33747 ft 369 kts 256°
2026-04-26 03:07 32.84117 -113.51362 33748 ft 368 kts 256°
2026-04-26 03:08 32.83259 -113.57372 33747 ft 369 kts 256°
2026-04-26 03:08 32.82416 -113.63385 33749 ft 369 kts 256°
2026-04-26 03:09 32.81567 -113.69396 33748 ft 368 kts 256°
2026-04-26 03:09 32.80707 -113.75393 33767 ft 368 kts 256°
2026-04-26 03:10 32.79851 -113.81413 33760 ft 369 kts 256°
2026-04-26 03:10 32.78985 -113.87419 33758 ft 369 kts 256°
2026-04-26 03:11 32.78119 -113.93429 33761 ft 369 kts 256°
2026-04-26 03:11 32.77530 -113.99472 33761 ft 374 kts 262°
2026-04-26 03:12 32.77460 -114.05658 33769 ft 375 kts 263°
2026-04-26 03:12 32.77654 -114.11890 33768 ft 378 kts 266°
2026-04-26 03:13 32.77896 -114.18134 33780 ft 378 kts 266°
2026-04-26 03:13 32.78140 -114.24379 33778 ft 378 kts 266°
2026-04-26 03:14 32.78387 -114.30612 33828 ft 376 kts 265°
2026-04-26 03:14 32.78646 -114.36831 33800 ft 377 kts 268°
2026-04-26 03:15 32.79846 -114.43015 33795 ft 394 kts 278°
2026-04-26 03:15 32.81457 -114.48736 33797 ft 395 kts 279°
2026-04-26 03:16 32.82688 -114.53142 33545 ft 377 kts 278°
2026-04-26 03:16 32.83506 -114.56058 33295 ft 366 kts 278°
2026-04-26 03:16 32.84297 -114.58873 33029 ft 363 kts 278°
2026-04-26 03:17 32.85080 -114.61716 32765 ft 361 kts 278°
2026-04-26 03:17 32.85864 -114.64558 32509 ft 360 kts 278°
2026-04-26 03:17 32.86630 -114.67383 32255 ft 358 kts 278°
2026-04-26 03:17 32.87368 -114.70206 31993 ft 354 kts 275°
2026-04-26 03:18 32.87811 -114.73044 31736 ft 344 kts 268°
2026-04-26 03:18 32.87886 -114.75862 31487 ft 338 kts 262°
2026-04-26 03:18 32.87815 -114.78641 31244 ft 336 kts 262°
2026-04-26 03:18 32.87733 -114.81421 30998 ft 335 kts 262°
2026-04-26 03:19 32.87658 -114.84190 30754 ft 334 kts 262°
2026-04-26 03:19 32.87591 -114.86957 30511 ft 333 kts 262°
2026-04-26 03:19 32.87528 -114.89708 30273 ft 333 kts 262°
2026-04-26 03:19 32.87464 -114.92455 30033 ft 332 kts 262°
2026-04-26 03:20 32.87401 -114.95197 29783 ft 331 kts 262°
2026-04-26 03:20 32.87338 -114.97924 29503 ft 330 kts 262°
2026-04-26 03:20 32.87268 -115.00648 29236 ft 328 kts 262°
2026-04-26 03:20 32.87207 -115.03321 28996 ft 325 kts 262°
2026-04-26 03:21 32.87151 -115.06006 28748 ft 324 kts 262°
2026-04-26 03:21 32.87087 -115.08683 28477 ft 324 kts 262°
2026-04-26 03:21 32.87019 -115.11358 28209 ft 323 kts 262°
2026-04-26 03:21 32.86958 -115.14022 27944 ft 322 kts 262°
2026-04-26 03:22 32.86892 -115.16680 27680 ft 321 kts 262°
2026-04-26 03:22 32.86827 -115.19331 27420 ft 320 kts 262°
2026-04-26 03:22 32.86762 -115.21969 27162 ft 319 kts 262°
2026-04-26 03:22 32.86696 -115.24605 26906 ft 318 kts 262°
2026-04-26 03:23 32.86628 -115.27227 26654 ft 317 kts 262°
2026-04-26 03:23 32.86563 -115.29842 26403 ft 316 kts 262°
2026-04-26 03:23 32.86504 -115.32452 26155 ft 315 kts 262°
2026-04-26 03:23 32.86339 -115.35025 25970 ft 307 kts 256°
2026-04-26 03:24 32.85999 -115.37516 25725 ft 304 kts 255°
2026-04-26 03:24 32.85642 -115.39989 25483 ft 303 kts 255°
2026-04-26 03:24 32.85291 -115.42424 25245 ft 302 kts 255°
2026-04-26 03:24 32.84941 -115.44887 25006 ft 302 kts 255°
2026-04-26 03:25 32.84595 -115.47342 24743 ft 298 kts 255°
2026-04-26 03:25 32.84236 -115.49746 24408 ft 293 kts 254°
2026-04-26 03:25 32.83848 -115.52114 24057 ft 289 kts 253°
2026-04-26 03:25 32.83465 -115.54451 23687 ft 286 kts 253°
2026-04-26 03:26 32.83087 -115.56767 23329 ft 284 kts 253°
2026-04-26 03:26 32.82711 -115.59056 22934 ft 280 kts 253°
2026-04-26 03:26 32.82465 -115.60559 22690 ft 278 kts 253°
2026-04-26 03:26 32.81978 -115.63543 22273 ft 272 kts 254°
2026-04-26 03:27 32.81742 -115.64994 22060 ft 270 kts 254°
2026-04-26 03:27 32.81384 -115.67174 21690 ft 268 kts 254°
2026-04-26 03:27 32.81026 -115.69353 21360 ft 268 kts 254°
2026-04-26 03:27 32.80647 -115.71636 21020 ft 297 kts 254°
2026-04-26 03:28 32.80245 -115.74081 20648 ft 304 kts 255°
2026-04-26 03:28 32.79841 -115.76555 20260 ft 303 kts 255°
2026-04-26 03:28 32.79437 -115.79011 19872 ft 303 kts 254°
2026-04-26 03:28 32.79033 -115.81473 19502 ft 303 kts 255°
2026-04-26 03:29 32.78631 -115.83927 19148 ft 302 kts 255°
2026-04-26 03:29 32.78333 -115.86382 18798 ft 305 kts 259°
2026-04-26 03:29 32.78148 -115.88890 18449 ft 305 kts 260°
2026-04-26 03:29 32.77975 -115.91412 18083 ft 305 kts 260°
2026-04-26 03:30 32.77793 -115.93919 17694 ft 304 kts 260°
2026-04-26 03:30 32.77612 -115.96421 17301 ft 303 kts 260°
2026-04-26 03:30 32.77430 -115.98910 16961 ft 302 kts 260°
2026-04-26 03:30 32.77240 -116.01395 16663 ft 301 kts 260°
2026-04-26 03:31 32.77048 -116.03871 16390 ft 301 kts 260°
2026-04-26 03:31 32.76866 -116.06342 16085 ft 300 kts 260°
2026-04-26 03:31 32.76680 -116.08813 15766 ft 299 kts 260°
2026-04-26 03:31 32.76490 -116.11275 15441 ft 299 kts 260°
2026-04-26 03:32 32.76300 -116.13741 15132 ft 299 kts 260°
2026-04-26 03:32 32.76112 -116.16197 14807 ft 299 kts 260°
2026-04-26 03:32 32.75923 -116.18652 14460 ft 298 kts 260°
2026-04-26 03:32 32.75734 -116.21093 14144 ft 297 kts 260°
2026-04-26 03:33 32.75546 -116.23541 13802 ft 297 kts 260°
2026-04-26 03:33 32.75361 -116.25980 13490 ft 296 kts 260°
2026-04-26 03:33 32.75181 -116.28352 13138 ft 288 kts 261°
2026-04-26 03:33 32.75001 -116.30714 12790 ft 285 kts 260°
2026-04-26 03:34 32.74819 -116.33056 12455 ft 284 kts 261°
2026-04-26 03:34 32.74639 -116.35386 12118 ft 282 kts 260°
2026-04-26 03:34 32.74455 -116.37703 11789 ft 281 kts 260°
2026-04-26 03:34 32.74280 -116.40013 11508 ft 280 kts 260°
2026-04-26 03:35 32.74099 -116.42308 11191 ft 279 kts 260°
2026-04-26 03:35 32.73917 -116.44595 10875 ft 278 kts 260°
2026-04-26 03:35 32.73741 -116.46849 10643 ft 269 kts 260°
2026-04-26 03:35 32.73571 -116.49016 10490 ft 258 kts 260°
2026-04-26 03:36 32.73401 -116.51111 10223 ft 252 kts 259°
2026-04-26 03:36 32.73201 -116.53172 9861 ft 251 kts 258°
2026-04-26 03:36 32.73000 -116.55227 9469 ft 249 kts 259°
2026-04-26 03:36 32.72804 -116.57258 9101 ft 247 kts 260°
2026-04-26 03:37 32.72610 -116.59263 8808 ft 248 kts 261°
2026-04-26 03:37 32.72412 -116.61295 8520 ft 248 kts 261°
2026-04-26 03:37 32.72213 -116.63329 8237 ft 250 kts 262°
2026-04-26 03:37 32.72010 -116.65413 8124 ft 255 kts 262°
2026-04-26 03:38 32.71822 -116.67502 7855 ft 254 kts 263°
2026-04-26 03:38 32.71659 -116.69612 7344 ft 257 kts 264°
2026-04-26 03:38 32.71499 -116.71693 7151 ft 247 kts 264°
2026-04-26 03:38 32.71343 -116.73694 6924 ft 241 kts 264°
2026-04-26 03:39 32.71192 -116.75667 6626 ft 239 kts 265°
2026-04-26 03:39 32.71040 -116.77618 6316 ft 237 kts 265°
2026-04-26 03:39 32.70891 -116.79534 6083 ft 232 kts 265°
2026-04-26 03:39 32.70738 -116.81378 6084 ft 219 kts 263°
2026-04-26 03:40 32.70360 -116.83114 5972 ft 217 kts 252°
2026-04-26 03:40 32.69824 -116.84791 5651 ft 218 kts 250°
2026-04-26 03:40 32.69285 -116.86476 5316 ft 218 kts 250°
2026-04-26 03:40 32.68749 -116.88165 5099 ft 220 kts 250°
2026-04-26 03:41 32.68240 -116.89844 4863 ft 216 kts 251°
2026-04-26 03:41 32.67759 -116.91478 4564 ft 213 kts 251°
2026-04-26 03:41 32.67331 -116.93101 4432 ft 200 kts 259°
2026-04-26 03:41 32.67355 -116.94690 4185 ft 191 kts 283°
2026-04-26 03:42 32.67737 -116.96145 4015 ft 180 kts 287°
2026-04-26 03:42 32.68106 -116.97566 3792 ft 180 kts 285°
2026-04-26 03:42 32.68468 -116.98995 3487 ft 182 kts 285°
2026-04-26 03:42 32.68818 -117.00409 3334 ft 182 kts 284°
2026-04-26 03:43 32.69168 -117.01871 3248 ft 181 kts 284°
2026-04-26 03:43 32.69512 -117.03280 2922 ft 180 kts 284°
2026-04-26 03:43 32.69856 -117.04690 2748 ft 177 kts 284°
2026-04-26 03:43 32.70203 -117.06096 2419 ft 177 kts 284°
2026-04-26 03:44 32.70545 -117.07486 2182 ft 167 kts 285°
2026-04-26 03:44 32.70840 -117.08667 2121 ft 134 kts 284°
2026-04-26 03:44 32.71097 -117.09706 1929 ft 130 kts 283°
2026-04-26 03:44 32.71345 -117.10741 1721 ft 131 kts 284°
2026-04-26 03:45 32.71599 -117.11770 1454 ft 129 kts 284°
2026-04-26 03:45 32.71859 -117.12789 1178 ft 129 kts 285°
2026-04-26 03:45 32.72123 -117.13764 963 ft 129 kts 285°
2026-04-26 03:45 32.72376 -117.14819 752 ft 128 kts 284°
2026-04-26 03:46 32.72604 -117.15824 582 ft 124 kts 284°
2026-04-26 03:46 32.72839 -117.16812 326 ft 125 kts 284°
2026-04-26 03:46 32.73080 -117.17808 120 ft 126 kts 284°
2026-04-26 03:47 32.73507 -117.19580 29 ft 75 kts 285°
2026-04-26 03:47 32.73607 -117.20006 29 ft 23 kts 285°
2026-04-26 03:47 32.73626 -117.20086 29 ft 11 kts 285°
2026-04-26 03:47 32.73622 -117.20182 28 ft 13 kts 235°